Location: Hains Lake
(37.8540°N, 99.8578°W)
Time: 23:41:22
(UTC+00:00)

Explorer 7 - Pass Details

Date: 26 April 2021
Orbit: 484 x 677 km, 50.3° (Epoch: 14 May)

Event Time Altitude Azimuth Distance (km) Brightness Sun altitude
Rises 05:01:22 0° 312° (NW) 2,731 11.3 -33.9°
Reaches altitude 10° 05:03:51 10° 325° (NW) 1,871 10.3 -34.1°
Enters shadow 05:05:28 19° 343° (NNW) 1,414 9.5 -34.2°
